This is the latest recevied weather packets stored in our database for station/object JE7UPL-13. If no packets are shown the sender has not sent any weather packets the latest 10 day(s).
| Time | Temp. | Humidity | Pressure | Rain* | Wind** | Luminosity | Snow |
|---|---|---|---|---|---|---|---|
| 1777970705 | 17.22° C | 43% | 1012 hPa | 0 mm | - | - | - |
| 1777969805 | 17.78° C | 42% | 1011.8 hPa | 0 mm | - | - | - |
| 1777968905 | 17.78° C | 41% | 1011.9 hPa | 0 mm | - | - | - |
| 1777968005 | 18.33° C | 42% | 1011.9 hPa | 0 mm | - | - | - |
| 1777966205 | 18.33° C | 39% | 1011.7 hPa | 0 mm | - | - | - |
| 1777965305 | 18.89° C | 39% | 1011.6 hPa | 0 mm | - | - | - |
| 1777964405 | 18.89° C | 37% | 1011.8 hPa | 0 mm | - | - | - |
| 1777962605 | 18.89° C | 36% | 1011.3 hPa | 0 mm | - | - | - |
| 1777961705 | 18.89° C | 35% | 1011.4 hPa | 0 mm | - | - | - |
| 1777960806 | 19.44° C | 35% | 1011.4 hPa | 0 mm | - | - | - |
| 1777959905 | 19.44° C | 35% | 1011.3 hPa | 0 mm | - | - | - |
| 1777959005 | 20° C | 33% | 1011.2 hPa | 0 mm | - | - | - |
| 1777958105 | 19.44° C | 33% | 1011.4 hPa | 0 mm | - | - | - |
| 1777957206 | 20° C | 32% | 1011.3 hPa | 0 mm | - | - | - |
| 1777956305 | 19.44° C | 31% | 1011.4 hPa | 0 mm | - | - | - |
| 1777955405 | 19.44° C | 32% | 1011.4 hPa | 0 mm | - | - | - |
| 1777954505 | 19.44° C | 31% | 1011.4 hPa | 0 mm | - | - | - |
| 1777943705 | 15° C | 50% | 1012.6 hPa | 0 mm | - | - | - |
| 1777940105 | 13.89° C | 52% | 1013 hPa | 0 mm | - | - | - |
| 1777937406 | 12.22° C | 55% | 1012.8 hPa | 0 mm | - | - | - |
| 1777934706 | 11.67° C | 54% | 1012.4 hPa | 0 mm | - | - | - |
| 1777921206 | 8.33° C | 66% | 1009.3 hPa | 0 mm | - | - | - |
| 1777919406 | 8.33° C | 65% | 1008.8 hPa | 0 mm | - | - | - |
| 1777904106 | 7.78° C | 86% | 1001.4 hPa | 0 mm | - | - | - |
| 1777903206 | 7.78° C | 83% | 1001.3 hPa | 0 mm | - | - | - |
* Rain latest hour (hover to see other rain measurements)
** Current wind speed in m/s (hover to see current wind gust speed)